SL-19 DEB, 23495

Orbit data source: Space-Track

SL-19 DEB, 23495 is space debris in LEO originally from a launch on Mon, 26 Dec 1994 UTC launched from the Tyuratam Missile And Space Complex (TTMTR). Debris objects in space refer to the collection of defunct objects orbiting the Earth. Examples of debris include non-operational satellites, rocket bodies, and fragments generated from explosions, collisions, or faulty payload assembly.

Loading next visibility...
Identifier
23495, 1994-085T
Orbit
LEO
Country
Flag of CISCIS
Related business
Manufacturer
Unknown
Mission
Spacecraft
Bus & Motor
Unknown
Mass
Unknown
Launch date (UTC)
1994-12-26 (31 years ago)
Launch vehicle
Unknown
Launch site
Tyuratam Missile And Space Complex (TTMTR)
Object type
Payload
Rocket body
Debris
Shape & HBR
Unknown shape, 0.2 m
Radar Cross Section
Small (<0.1 m²)

Expand to show TLE details & history
Last TLE update: 20 hours ago

TLE from 20 hours ago
0 SL-19 DEB
1 23495U 94085T   26048.27421348 -.00000058  00000-0 -44267-3 0  9991
2 23495  65.0224 145.7214 0171251  73.7085 318.0276 11.31088229286238
Epoch: 2026-02-17T06:34Z
TLE epoch observation values (Epoch: 2026-02-17T06:34:52.044Z)
Latitude
27.35622°
Longitude
-86.37241°
Altitude
1,901.54 km
Speed
6.986 km/s
True Right ascension
10h 38m 24s
True Declination
27° 14' 08"
Sunlit
Object was in full shadow at epoch
Visualization orbit readout
Latitude
Unknown
Longitude
Unknown
Altitude
Unknown
Speed
Unknown
Apparent Right ascension
Unknown
Apparent Declination
Unknown
Sunlit
N/A
Visualization observer readout
Local Sidereal Time
05:22:03
Azimuth
Unknown
Elevation
Unknown
Doppler factor
Unknown
Orbital elements
Apogee altitude
2,147.278 km
Perigee altitude
1,860.197 km
Semi-major axis
8,381.874 km
Eccentricity
0.01713
Inclination
65.0224°
RAAN
145.7214°
Arg. of periapsis
73.7085°
True anomaly
316.69412°
Mean anomaly
318.0276°
Eccentric anomaly
317.36299°
Mean motion
2.82834 °/min
Orbital period
127.28 mins
BSTAR
-0.00044267
Loading maneuver chart data...
Computing Atmospheric mass density...
Loading historical data...
Loading historical data...
Loading historical data...
Loading historical data...
Loading historical data...
Loading historical data...
Loading historical data...

Documentation

Showing up to 5 results
|